TimeCST,TemperatureF,Dew PointF,Humidity,Sea Level PressureIn,VisibilityMPH,Wind Direction,Wind SpeedMPH,Gust SpeedMPH,PrecipitationIn,Events,Conditions,WindDirDegrees,DateUTC
12:15 AM,7.0,-2.4,66,30.15,10.0,WNW,10.4,-,N/A,,Clear,300,2013-02-20 06:15:00
12:35 AM,6.8,-2.4,66,30.15,10.0,WNW,10.4,17.3,N/A,,Clear,300,2013-02-20 06:35:00
12:55 AM,6.8,-2.6,66,30.16,10.0,WNW,10.4,-,N/A,,Clear,290,2013-02-20 06:55:00
1:15 AM,6.6,-2.6,66,30.17,10.0,WNW,9.2,-,N/A,,Clear,290,2013-02-20 07:15:00
1:35 AM,6.3,-2.6,67,30.19,10.0,WNW,9.2,-,N/A,,Clear,290,2013-02-20 07:35:00
2:15 AM,6.1,-2.6,68,30.20,10.0,WNW,9.2,-,N/A,,Clear,290,2013-02-20 08:15:00
2:35 AM,5.9,-2.6,68,30.21,10.0,West,10.4,16.1,N/A,,Clear,280,2013-02-20 08:35:00
2:55 AM,5.9,-2.6,68,30.21,10.0,WNW,9.2,-,N/A,,Clear,290,2013-02-20 08:55:00
3:15 AM,5.9,-2.4,69,30.21,10.0,WNW,9.2,17.3,N/A,,Clear,300,2013-02-20 09:15:00
3:35 AM,5.7,-2.6,69,30.21,10.0,WNW,10.4,18.4,N/A,,Clear,300,2013-02-20 09:35:00
4:55 AM,5.4,-2.4,70,30.24,10.0,WNW,10.4,-,N/A,,Clear,300,2013-02-20 10:55:00
5:15 AM,5.0,-2.6,71,30.24,10.0,WNW,9.2,-,N/A,,Clear,300,2013-02-20 11:15:00
5:35 AM,5.0,-2.4,72,30.25,10.0,WNW,11.5,17.3,N/A,,Clear,290,2013-02-20 11:35:00
5:55 AM,4.8,-2.4,72,30.25,10.0,WNW,9.2,-,N/A,,Clear,300,2013-02-20 11:55:00
6:15 AM,4.8,-2.4,72,30.26,10.0,WNW,8.1,-,N/A,,Clear,300,2013-02-20 12:15:00
6:35 AM,4.6,-2.2,73,30.27,10.0,WNW,10.4,-,N/A,,Clear,290,2013-02-20 12:35:00
7:35 AM,5.4,-1.5,73,30.28,10.0,NW,11.5,-,N/A,,Clear,310,2013-02-20 13:35:00
8:15 AM,6.4,-0.8,72,30.29,10.0,NW,11.5,-,N/A,,Clear,320,2013-02-20 14:15:00
9:15 AM,9.1,1.4,71,30.29,10.0,NW,9.2,-,N/A,,Clear,310,2013-02-20 15:15:00
9:35 AM,10.2,2.3,70,30.29,10.0,NW,10.4,-,N/A,,Clear,320,2013-02-20 15:35:00
9:55 AM,10.8,2.5,69,30.29,10.0,NNW,11.5,-,N/A,,Clear,330,2013-02-20 15:55:00
10:35 AM,12.4,3.6,68,30.30,10.0,NW,10.4,16.1,N/A,,Clear,310,2013-02-20 16:35:00
11:15 AM,14.2,4.6,66,30.32,10.0,NW,10.4,-,N/A,,Clear,310,2013-02-20 17:15:00
11:55 AM,15.4,4.8,63,30.32,10.0,NNW,8.1,-,N/A,,Clear,330,2013-02-20 17:55:00
12:15 PM,16.5,5.9,63,30.31,10.0,North,8.1,-,N/A,,Clear,350,2013-02-20 18:15:00
12:35 PM,17.1,5.7,61,30.30,10.0,North,9.2,-,N/A,,Clear,350,2013-02-20 18:35:00
12:55 PM,17.6,6.4,62,30.30,10.0,NW,5.8,-,N/A,,Clear,310,2013-02-20 18:55:00
1:15 PM,17.6,6.3,61,30.31,10.0,WNW,8.1,-,N/A,,Clear,290,2013-02-20 19:15:00
1:35 PM,17.8,6.3,61,30.32,10.0,West,6.9,-,N/A,,Clear,280,2013-02-20 19:35:00
1:55 PM,18.5,7.2,61,30.33,10.0,West,8.1,-,N/A,,Clear,270,2013-02-20 19:55:00
2:15 PM,18.5,7.0,61,30.34,10.0,West,9.2,-,N/A,,Clear,260,2013-02-20 20:15:00
2:35 PM,19.2,7.7,61,30.34,10.0,West,6.9,-,N/A,,Clear,270,2013-02-20 20:35:00
2:55 PM,19.8,8.1,61,30.34,10.0,West,9.2,-,N/A,,Clear,270,2013-02-20 20:55:00
3:35 PM,20.3,7.9,59,30.32,10.0,West,10.4,-,N/A,,Clear,280,2013-02-20 21:35:00
3:55 PM,20.3,8.2,60,30.32,10.0,WNW,8.1,-,N/A,,Clear,300,2013-02-20 21:55:00
4:15 PM,20.3,8.1,59,30.32,10.0,NW,6.9,-,N/A,,Clear,310,2013-02-20 22:15:00
4:35 PM,19.9,9.0,62,30.32,10.0,West,4.6,-,N/A,,Clear,280,2013-02-20 22:35:00
4:55 PM,19.4,8.4,62,30.32,10.0,West,3.5,-,N/A,,Clear,280,2013-02-20 22:55:00
5:15 PM,19.4,9.0,64,30.32,10.0,WNW,3.5,-,N/A,,Clear,300,2013-02-20 23:15:00
5:55 PM,18.0,9.0,68,30.32,10.0,Calm,Calm,-,N/A,,Clear,0,2013-02-20 23:55:00
6:15 PM,17.4,9.5,71,30.32,10.0,Calm,Calm,-,N/A,,Clear,0,2013-02-21 00:15:00
6:35 PM,16.7,8.6,70,30.32,10.0,West,3.5,-,N/A,,Clear,260,2013-02-21 00:35:00
6:55 PM,16.7,10.0,75,30.32,10.0,Calm,Calm,-,N/A,,Clear,0,2013-02-21 00:55:00
7:15 PM,13.8,9.0,81,30.32,10.0,Calm,Calm,-,N/A,,Clear,0,2013-02-21 01:15:00
7:35 PM,12.4,8.4,84,30.31,10.0,Calm,Calm,-,N/A,,Clear,0,2013-02-21 01:35:00
7:55 PM,12.0,7.9,83,30.31,10.0,Calm,Calm,-,N/A,,Clear,0,2013-02-21 01:55:00
8:15 PM,11.5,7.5,84,30.32,10.0,Calm,Calm,-,N/A,,Clear,0,2013-02-21 02:15:00
8:35 PM,10.4,7.5,88,30.31,10.0,Calm,Calm,-,N/A,,Clear,0,2013-02-21 02:35:00
8:55 PM,13.1,7.9,80,30.31,10.0,Calm,Calm,-,N/A,,Clear,0,2013-02-21 02:55:00
9:15 PM,14.7,7.9,74,30.32,10.0,Calm,Calm,-,N/A,,Clear,0,2013-02-21 03:15:00
9:35 PM,11.1,6.6,82,30.32,10.0,Calm,Calm,-,N/A,,Clear,0,2013-02-21 03:35:00
9:55 PM,8.6,5.4,87,30.33,10.0,Calm,Calm,-,N/A,,Clear,0,2013-02-21 03:55:00
10:15 PM,10.0,6.3,85,30.33,10.0,NNW,3.5,-,N/A,,Clear,330,2013-02-21 04:15:00
10:35 PM,9.3,6.3,87,30.34,10.0,Calm,Calm,-,N/A,,Clear,0,2013-02-21 04:35:00
10:55 PM,7.2,4.1,87,30.34,10.0,Calm,Calm,-,N/A,,Clear,0,2013-02-21 04:55:00
11:15 PM,8.2,5.9,90,30.34,10.0,North,3.5,-,N/A,,Clear,360,2013-02-21 05:15:00
11:35 PM,7.5,4.5,87,30.35,10.0,Calm,Calm,-,N/A,,Clear,0,2013-02-21 05:35:00
11:55 PM,6.4,3.7,89,30.36,10.0,Calm,Calm,-,N/A,,Clear,0,2013-02-21 05:55:00